FLOCK 4E'-5 (46817 NORAD) Tracking and Keplerian Element Data

This shows tracking and keplerian element data for the satellite.

Feedback or suggestion? Click here.




ElementValue
Catalog46817
NameFLOCK 4E'-5
Epoch Orbit549
Epoch Day339.14547036
Epoch Year2020
RAAN39.1997
Inclination97.4979
Eccentricity0.0015099
Argument of Perigee181.0095
Mean Anonmoly207.9207
Mean Motion15.16788787
Decay Rate5.579E-05
L11 46817U 20077E 20339.14547036 .00005579 00000-0 28670-3 0 9991
L22 46817 97.4979 39.1997 0015099 181.0095 207.9207 15.16788787 5492

Live tracking and technical data element details for FLOCK 4E'-5 (NORAD 46817). FLOCK 4E'-5 can be tracked NOW for your location showing map with azimuth and elevation plus other details from your city location.

Track the satellite on the map from your city or location and see movement details for azimuth, elevation, latitude, longitude, range, height, and movement on the map or in text.







IsCatalogInMostPopularTable: catalog: 46817, numindb: 12
Update: records affected: 1



GetName: 46817 FLOCK 4E'-5

Hit Count: updated at: Sat, 05 Dec 2020 05:03:37 GMT